Вернуться в каталог

STARLINK-4062

АктивенСвязьVLEO
NORAD 53261·PAYLOAD·🇺🇸 United States

Запущен Jul 24, 2022 с Cape Canaveral Space Force Station

Loading…

Ближайшие Пролёты (ближайшие 24 часа)

TLE

СвежийSource: CelesTrak SupGP

Эпоха: Sep 14, 2026, 21:36 UTC

1 53261C 22086V   26257.90048611  .00048351  00000+0  14289-2 0  2579
2 53261  53.1590  51.5925 0001178  80.4918 126.3135 15.34358429    12

Отслеживайте STARLINK-4062 в реальном времени с AllMySat

Download on the App Store